Regional Weather Roundup
Issued by NWS Newport/Morehead, NC

Current Version | Previous Version | Text Only | Print | Product List | Glossary Off
Versions: 1 2 3 4 5 6 7 8 9 10 11 12 13 14 15 16 17 18 19 20 21 22 23 24 25 26 27 28 29 30 31 32 33 34 35 36 37 38 39 40 41 42 43 44 45 46 47 48 49 50

000
ASUS42 KMHX 260612
RWRMHX
WEATHER ROUNDUP FOR EASTERN NORTH CAROLINA
NATIONAL WEATHER SERVICE NEWPORT/MOREHEAD CITY NC
200 AM EDT SUN APR 26 2015

NOTE: "FAIR" INDICATES FEW OR NO CLOUDS BELOW 12,000 FEET
WITH NO SIGNIFICANT WEATHER AND/OR OBSTRUCTIONS TO VISIBILITY

NCZ015>017-031-032-045>047-102-103-260700-
NORTH COAST

CITY           SKY/WX    TMP DP  RH WIND       PRES   REMARKS
EDENTON        CLOUDY    49  48  97 N8        29.62F
ELIZABETH CITY CLOUDY    49  47  93 NE15      29.62F
KITTY HAWK     DRIZZLE   51  51 100 N9G17     29.58F
MANTEO         CLOUDY    51  51  99 N18G24    29.60S

$$

NCZ045>047-081-094-103-104-260700-
CENTRAL COAST

CITY           SKY/WX    TMP DP  RH WIND       PRES   REMARKS
FRISCO         CLOUDY    56  56 100 N5        29.56S
SWANQUARTER      N/A     54 N/A N/A VRB6      29.56S

$$

NCZ095-097-098-100-101-260700-
SOUTHERN COAST

CITY           SKY/WX    TMP DP  RH WIND       PRES   REMARKS
BEAUFORT       CLOUDY    63  62  97 NW14      29.56F
CEDAR ISLAND     N/A     59 N/A N/A N9        29.62S
JACKSONVILLE   CLOUDY    61  59  93 W5        29.57F
PINEY ISLAND   CLOUDY   N/A N/A N/A N13       29.58S
WILMINGTON     CLOUDY    67  66  97 CALM      29.57F


$$

NCZ011>013-027>030-043-044-078>080-089-090>093-098-260700-
COASTAL PLAIN

CITY           SKY/WX    TMP DP  RH WIND       PRES   REMARKS
AHOSKIE        LGT RAIN  46  45  96 N5        29.65F
CLINTON        CLOUDY    58  58 100 N3        29.59F FOG
ELIZABETHTOWN  CLOUDY    62  62 100 CALM      29.59F FOG
GOLDSBORO      CLOUDY    55  55 100 N2        29.58F FOG
GREENVILLE     CLOUDY    50  50 100 N8        29.66S FOG
HAVELOCK       CLOUDY    61  58  90 N9        29.57F
KENANSVILLE    CLOUDY    58  57  97 N6        29.60F FOG
KINSTON        CLOUDY    56  56  99 N7        29.61F FOG
NEW BERN       CLOUDY    60  57  89 NW6       29.60F
RICHLANDS      CLOUDY    59  54  82 CALM      29.58F
ROCKY MOUNT    CLOUDY    49  47  93 N12       29.63F FOG
WASHINGTON     CLOUDY    52  52  97 N9        29.62S FOG
WHITEVILLE     CLOUDY    66  64  94 CALM      29.57F FOG

$$

AMZ130-135-150-152-154-156-158-170-250-252-270-ANZ085-086-088-633-658-670-260700-
MARINE OBSERVATIONS

STATION/POSITION TIME  TEMP    WIND        PRES    WAVE   SWELL
                       AIR SEA DIR/SP/G            HT/PER HT/PER
                 (UTC) (F)     (DEG/KT/KT) (MB)    (FT/S) (FT/S)
CHESAPEAKE LIGHT 0500   46      60/ 15/ 16 1004.7
64 E VA BEACH    0550   54 57   40/ 17/ 21 1001.7    4/ 4   2/11
DUCK             0500   51 54   20/ 21/ 25 1001.5
2 E DUCK         0511      54                N/A     4/ 6
10 NE DUCK       NOT AVBL
OREGON INLET     0500   54 59  360/  5/ 10 1001.6
HATTERAS CG      0500   60 65   10/ 10/ 12 1000.6
DIAMOND BUOY     0550   65 75  310/ 12/ 16 1000.4    4/ 7   3/ 7
CAPE LOOKOUT     0600   63     290/ 11/ 13 1000.7
BEAUFORT LAB     0500   63 63  310/  7/ 10 1001.1
27 SE WRIGHTSVLE 0500   67 72  280/ 17/ 21   N/A
5 SE WRIGHTSVLE  0508   67 65  250/  6/ 10 1001.9
225 S CAPE HAT   0550   73 71  230/ 23/ 27 1003.3    7/ 6   2/11
41 SE CHARLESTON 0550   71 71  220/ 17/ 19 1002.6    4/ 6   2/11

$$


USA.gov is the U.S. government's official web portal to all federal, state and local government web resources and services.